Погода в Гарачике

Испания     28°22′30″N   16°45′50″W
темп.,
°C
ветер,
м/с
пор.,
м/с
влажн.,
%
обл.,
%
осадки,
мм/ч
давл.,
гПа
погр.,
м
11 мая, вт
вт1101:00+19всв88738 0.1 1023994
04:00+18всв88701 0.0 10221006
07:00+19всв99680 0.0 10221111
10:00+19всв996883 0.0 10241119
13:00+19всв99745 0.0 1024908
16:00+19св9968100 0.0 1023848
19:00+20всв99736 0.0 10231031
22:00+19всв910700 0.0 1024972
12 мая, ср
ср1201:00+19всв910694 0.0 1025985
04:00+18всв99707 0.0 1023957
07:00+18всв9107193 0.0 1023946
10:00+19всв9107091 0.0 1024985
13:00+19всв10107091 0.0 1024934
16:00+19св10107032 0.0 1023856
19:00+19всв10107194 0.0 1023829
22:00+19всв101073100 0.0 1023799
13 мая, чт
чт1301:00+19всв9107632 0.0 1024801
04:00+19всв897863 0.0 1022877
07:00+19всв898278 0.1 1022843
10:00+19всв898071 0.1 1022673
13:00+20всв898232 0.2 1022701
16:00+20св787966 0.0 1021886
19:00+20св898173 0.1 1021643
22:00+19всв89730 0.0 1022868
14 мая, пт
пт1401:00+19всв910730 0.0 1022949
04:00+19всв910730 0.0 1020913
07:00+19всв9107470 0.0 10201013
10:00+20всв9107271 0.1 10211080
13:00+20всв897567 0.1 1022936
16:00+20всв787970 0.0 1021822
19:00+20всв797870 0.1 1020907
22:00+19всв787770 0.1 1021747
15 мая, сб
сб1501:00+19всв8107369 0.1 1021989
04:00+19всв897470 0.0 1019973
07:00+20всв897185 0.1 10191021
10:00+19всв7880100 0.1 1020627
13:00+20всв8977100 0.1 1020869
16:00+20св8978100 0.0 1018799
19:00+20св897871 0.0 1018794
22:00+20всв897993 0.0 1019788